When you browse on this site, cookies collect data to enhance your experience and personalize the content and advertising you see.
Visit our Privacy Policy to learn more. By continuing to use the site, you agree to this use of cookies and data.
  • In United Kingdom
  • List of Countries
  • For 7 days
  • Water Temperature
  • Satellite Maps
  • Weather Map
  • Weather Widgets
  • user-avatar
    Login

    Hourly Weather Kingston upon Thames

    Today, 19 January, Saturday

    Time Temperature Precipitation Wind Pressure Humidity
    00:00 +1°C° 0 mm 5 mps 757 mmHg 69%
    01:00 +1°C° 0 mm 4 mps 757 mmHg 69%
    02:00 +1°C° 0 mm 4 mps 756 mmHg 70%
    03:00 +1°C° 0 mm 4 mps 756 mmHg 70%
    04:00 +1°C° 0.1 mm 4 mps 756 mmHg 72%
    05:00 +1°C° 0.1 mm 4 mps 755 mmHg 73%
    06:00 +1°C° 0.1 mm 4 mps 755 mmHg 74%
    07:00 +3°C° 0.1 mm 4 mps 755 mmHg 78%
    08:00 +3°C° 0.1 mm 4 mps 755 mmHg 81%
    09:00 +3°C° 0.1 mm 4 mps 755 mmHg 84%
    10:00 +3°C° 0 mm 4 mps 755 mmHg 84%
    11:00 +4°C° 0 mm 4 mps 755 mmHg 85%
    12:00 +4°C° 0 mm 4 mps 754 mmHg 85%
    13:00 +4°C° 0 mm 4 mps 754 mmHg 85%
    14:00 +4°C° 0 mm 4 mps 754 mmHg 85%
    15:00 +4°C° 0 mm 4 mps 754 mmHg 85%
    16:00 +4°C° 0 mm 4 mps 754 mmHg 86%
    17:00 +4°C° 0 mm 4 mps 754 mmHg 87%
    18:00 +4°C° 0 mm 3 mps 754 mmHg 89%
    19:00 +4°C° 0 mm 3 mps 754 mmHg 88%
    20:00 +4°C° 0 mm 3 mps 754 mmHg 88%
    21:00 +3°C° 0 mm 3 mps 755 mmHg 87%
    22:00 +3°C° 0 mm 3 mps 755 mmHg 87%
    23:00 +3°C° 0 mm 3 mps 755 mmHg 87%

    Tomorrow, 20 January, Sunday

    Time Temperature Precipitation Wind Pressure Humidity
    00:00 +4°C° 0 mm 2 mps 755 mmHg 86%
    01:00 +4°C° 0 mm 2 mps 756 mmHg 87%
    02:00 +3°C° 0 mm 2 mps 756 mmHg 87%
    03:00 +3°C° 0 mm 2 mps 756 mmHg 87%
    04:00 +3°C° 0 mm 2 mps 757 mmHg 88%
    05:00 +3°C° 0 mm 1 mps 757 mmHg 89%
    06:00 +3°C° 0 mm 1 mps 757 mmHg 90%
    07:00 +3°C° 0 mm 1 mps 758 mmHg 89%
    08:00 +3°C° 0 mm 1 mps 759 mmHg 89%
    09:00 +3°C° 0 mm 1 mps 760 mmHg 88%
    10:00 +3°C° 0 mm 2 mps 760 mmHg 85%
    11:00 +4°C° 0 mm 2 mps 761 mmHg 82%
    12:00 +5°C° 0 mm 2 mps 761 mmHg 79%
    13:00 +5°C° 0 mm 2 mps 761 mmHg 79%
    14:00 +5°C° 0 mm 2 mps 762 mmHg 78%
    15:00 +5°C° 0 mm 2 mps 762 mmHg 77%
    16:00 +5°C° 0 mm 2 mps 763 mmHg 79%
    17:00 +4°C° 0 mm 2 mps 763 mmHg 80%
    18:00 +4°C° 0 mm 2 mps 764 mmHg 81%
    19:00 +3°C° 0 mm 2 mps 765 mmHg 82%
    20:00 +2°C° 0 mm 2 mps 765 mmHg 83%
    21:00 +2°C° 0 mm 2 mps 766 mmHg 84%
    22:00 +2°C° 0 mm 1 mps 766 mmHg 84%
    23:00 +2°C° 0 mm 1 mps 766 mmHg 85%

    Day after tomorrow, 21 January, Monday

    Time Temperature Precipitation Wind Pressure Humidity
    00:00 +2°C° 0 mm 1 mps 767 mmHg 86%
    01:00 +2°C° 0 mm 1 mps 767 mmHg 87%
    02:00 +2°C° 0 mm 1 mps 767 mmHg 87%
    03:00 +2°C° 0 mm 1 mps 767 mmHg 88%
    04:00 +1°C° 0 mm 1 mps 767 mmHg 89%
    05:00 +1°C° 0 mm 1 mps 767 mmHg 90%
    06:00 +1°C° 0 mm 1 mps 767 mmHg 92%
    07:00 +2°C° 0 mm 1 mps 767 mmHg 91%
    08:00 +2°C° 0 mm 1 mps 767 mmHg 91%
    09:00 +2°C° 0 mm 1 mps 767 mmHg 91%
    10:00 +3°C° 0 mm 1 mps 767 mmHg 86%
    11:00 +4°C° 0 mm 1 mps 766 mmHg 82%
    12:00 +4°C° 0 mm 2 mps 766 mmHg 77%
    13:00 +5°C° 0 mm 2 mps 765 mmHg 77%
    14:00 +4°C° 0 mm 3 mps 764 mmHg 78%
    15:00 +4°C° 0 mm 3 mps 763 mmHg 78%
    16:00 +4°C° 0 mm 4 mps 763 mmHg 81%
    17:00 +3°C° 0 mm 4 mps 762 mmHg 84%
    18:00 +3°C° 0 mm 4 mps 761 mmHg 87%
    19:00 +3°C° 0 mm 4 mps 760 mmHg 85%
    20:00 +3°C° 0 mm 5 mps 759 mmHg 84%
    21:00 +3°C° 0 mm 5 mps 757 mmHg 83%
    22:00 +4°C° 0.6 mm 6 mps 756 mmHg 83%
    23:00 +4°C° 0.6 mm 7 mps 755 mmHg 83%

    22 January, Tuesday

    Time Temperature Precipitation Wind Pressure Humidity
    00:00 +4°C° 0.6 mm 8 mps 753 mmHg 83%
    01:00 +3°C° 0.8 mm 7 mps 753 mmHg 77%
    02:00 +2°C° 0.8 mm 6 mps 752 mmHg 72%
    03:00 +1°C° 0.8 mm 4 mps 752 mmHg 67%
    04:00 +1°C° 0 mm 4 mps 752 mmHg 69%
    05:00 0°C° 0 mm 5 mps 751 mmHg 71%
    06:00 0°C° 0 mm 5 mps 751 mmHg 73%
    07:00 0°C° 0 mm 5 mps 751 mmHg 73%
    08:00 0°C° 0 mm 5 mps 751 mmHg 74%
    09:00 0°C° 0 mm 5 mps 751 mmHg 74%
    10:00 +1°C° 0 mm 5 mps 750 mmHg 69%
    11:00 +1°C° 0 mm 5 mps 750 mmHg 65%
    12:00 +2°C° 0 mm 5 mps 749 mmHg 60%
    13:00 +2°C° 0.1 mm 5 mps 749 mmHg 61%
    14:00 +3°C° 0.1 mm 4 mps 748 mmHg 62%
    15:00 +3°C° 0.1 mm 4 mps 748 mmHg 63%
    16:00 +1°C° 0 mm 4 mps 748 mmHg 66%
    17:00 0°C° 0 mm 4 mps 748 mmHg 69%
    18:00 0°C° 0 mm 3 mps 748 mmHg 73%
    19:00 0°C° 0 mm 3 mps 747 mmHg 73%
    20:00 0°C° 0 mm 3 mps 747 mmHg 74%
    21:00 -2°C° 0 mm 4 mps 747 mmHg 75%
    22:00 -1°C° 0 mm 3 mps 747 mmHg 76%
    23:00 -1°C° 0 mm 3 mps 747 mmHg 77%

    23 January, Wednesday

    Time Temperature Precipitation Wind Pressure Humidity
    00:00 -1°C° 0 mm 3 mps 747 mmHg 77%
    01:00 -1°C° 0 mm 3 mps 747 mmHg 78%
    02:00 -1°C° 0 mm 3 mps 746 mmHg 78%
    03:00 -2°C° 0 mm 3 mps 746 mmHg 79%
    04:00 -2°C° 0 mm 3 mps 746 mmHg 79%
    05:00 -2°C° 0 mm 3 mps 746 mmHg 80%
    06:00 -2°C° 0 mm 3 mps 746 mmHg 80%
    07:00 -1°C° 0 mm 3 mps 746 mmHg 80%
    08:00 -1°C° 0 mm 3 mps 746 mmHg 80%
    09:00 -1°C° 0 mm 3 mps 747 mmHg 80%
    10:00 0°C° 0 mm 3 mps 747 mmHg 74%
    11:00 +1°C° 0 mm 3 mps 747 mmHg 68%
    12:00 +2°C° 0 mm 3 mps 747 mmHg 62%
    13:00 +1°C° 0 mm 4 mps 747 mmHg 61%
    14:00 +1°C° 0 mm 4 mps 747 mmHg 59%
    15:00 +1°C° 0 mm 4 mps 747 mmHg 58%
    16:00 0°C° 0 mm 4 mps 748 mmHg 63%
    17:00 -1°C° 0 mm 4 mps 748 mmHg 67%
    18:00 -1°C° 0 mm 3 mps 749 mmHg 72%
    19:00 -1°C° 0 mm 3 mps 749 mmHg 72%
    20:00 -1°C° 0 mm 3 mps 749 mmHg 71%
    21:00 -1°C° 0 mm 3 mps 749 mmHg 71%
    22:00 -1°C° 0 mm 3 mps 749 mmHg 71%
    23:00 -1°C° 0 mm 3 mps 749 mmHg 72%

    24 January, Thursday

    Time Temperature Precipitation Wind Pressure Humidity
    00:00 -1°C° 0 mm 3 mps 750 mmHg 73%
    01:00 -1°C° 0 mm 3 mps 750 mmHg 75%
    02:00 -2°C° 0 mm 4 mps 750 mmHg 77%
    03:00 -2°C° 0 mm 4 mps 750 mmHg 79%
    04:00 -2°C° 0 mm 4 mps 751 mmHg 80%
    05:00 -1°C° 0 mm 5 mps 752 mmHg 81%
    06:00 -1°C° 0 mm 5 mps 752 mmHg 81%
    07:00 -1°C° 0 mm 5 mps 753 mmHg 81%
    08:00 -1°C° 0 mm 4 mps 754 mmHg 81%
    09:00 -1°C° 0 mm 4 mps 755 mmHg 81%
    10:00 0°C° 0 mm 4 mps 755 mmHg 76%
    11:00 +1°C° 0 mm 5 mps 755 mmHg 72%
    12:00 +3°C° 0 mm 5 mps 755 mmHg 68%
    13:00 +3°C° 0 mm 6 mps 756 mmHg 67%
    14:00 +3°C° 0 mm 6 mps 756 mmHg 67%
    15:00 +3°C° 0 mm 6 mps 756 mmHg 66%
    16:00 +2°C° 0 mm 6 mps 757 mmHg 68%
    17:00 +2°C° 0 mm 6 mps 757 mmHg 71%
    18:00 +1°C° 0 mm 6 mps 758 mmHg 73%
    19:00 -1°C° 0 mm 6 mps 758 mmHg 72%
    20:00 -1°C° 0 mm 6 mps 758 mmHg 71%
    21:00 -1°C° 0 mm 5 mps 759 mmHg 71%
    22:00 -1°C° 0 mm 5 mps 759 mmHg 71%
    23:00 -1°C° 0 mm 5 mps 759 mmHg 72%
    Show more